CZ-6A DEB, 54974

Orbit data source: Space-Track

CZ-6A DEB, 54974 is space debris in SSO originally from a launch on Fri, 11 Nov 2022 UTC launched from the Taiyaun Space Center, China (TSC). Debris objects in space refer to the collection of defunct objects orbiting the Earth. Examples of debris include non-operational satellites, rocket bodies, and fragments generated from explosions, collisions, or faulty payload assembly.

Loading next visibility...
Identifier
54974, 2022-151TP
Orbit
SSO
Country
Flag of CNCN / PRC
Related business
Manufacturer
SAST
Mission
Spacecraft
Bus & Motor
Unknown
Mass
Unknown
Launch date (UTC)
2022-11-11 (3 years ago)
Launch vehicle
Unknown
Launch site
Taiyaun Space Center, China (TSC)
Object type
Payload
Rocket body
Debris
Shape & HBR
Unknown shape, 0.1 m
Radar Cross Section
Small (<0.1 m²)

Expand to show TLE details & history
Last TLE update: 13 hours ago

TLE from 13 hours ago
0 CZ-6A DEB
1 54974U 22151TP  25353.11200490  .00005144  00000-0  11425-2 0  9994
2 54974  98.6381  35.8288 0093482 150.6173 210.0325 14.54794103162751
Epoch: 2025-12-19T02:41Z
TLE epoch observation values (Epoch: 2025-12-19T02:41:17.223Z)
Latitude
-0°
Longitude
-92.4508°
Altitude
770.529 km
Speed
7.439 km/s
True Right ascension
02h 23m 18s
True Declination
0° 00' 00"
Sunlit
Object was in full shadow at epoch
Visualization orbit readout
Latitude
Unknown
Longitude
Unknown
Altitude
Unknown
Speed
Unknown
Apparent Right ascension
Unknown
Apparent Declination
Unknown
Sunlit
N/A
Visualization observer readout
Local Sidereal Time
15:02:34
Azimuth
Unknown
Elevation
Unknown
Doppler factor
Unknown
Orbital elements
Apogee altitude
773.376 km
Perigee altitude
640.907 km
Semi-major axis
7,085.279 km
Eccentricity
0.00935
Inclination
98.6381°
RAAN
35.8288°
Arg. of periapsis
150.6173°
True anomaly
209.50174°
Mean anomaly
210.0325°
Eccentric anomaly
209.76659°
Mean motion
3.63922 °/min
Orbital period
98.92 mins
BSTAR
0.0011425
Loading maneuver chart data...
Computing Atmospheric mass density...

Documentation

Showing up to 5 results
|